Regional Weather Roundup
Issued by NWS

Home | Current Version | Previous Version | Text Only | Print | Product List | Glossary On
Versions: 1 2 3 4 5 6 7 8 9 10 11 12 13 14 15 16 17 18 19 20 21 22 23 24 25 26 27 28 29 30 31 32 33 34 35 36 37 38 39 40 41 42 43 44 45 46 47 48 49 50
713
ASUS46 KPQR 071610
RWROR

OREGON REGIONAL WEATHER ROUNDUP
NATIONAL WEATHER SERVICE PORTLAND OR
800 AM PST SUN FEB 07 2016

NOTE: "FAIR" INDICATES FEW OR NO CLOUDS BELOW 12,000 FEET WITH
NO SIGNIFICANT WEATHER AND/OR OBSTRUCTIONS TO VISIBILITY.

ORZ001>013-071700-
NORTHWEST OREGON


CITY           SKY/WX    TMP DP  RH WIND       PRES   REMARKS
ASTORIA        MOCLDY    44  40  85 E7        30.47S
NEWPORT        CLEAR     46  45  93 E12       30.47S
PORTLAND       MOCLDY    46  41  82 CALM      30.53R
VANCOUVER WA   CLOUDY    45  41  86 CALM      30.53R
SCAPPOOSE      CLOUDY    44  41  89 CALM      30.52S
HILLSBORO      CLOUDY    42  41  96 CALM      30.51S
AURORA         MOCLDY    43  41  93 NE5       30.52R
MCMINNVILLE    CLOUDY    46  42  86 CALM      30.52R
SALEM          CLOUDY    46  43  89 N5        30.50R FOG
CORVALLIS      CLOUDY    46  43  87 CALM      30.51S
EUGENE         FOG       46  44  93 NE5       30.50S VSB 1/4
$$

ORZ021-028-071700-
SOUTHWEST OREGON


CITY           SKY/WX    TMP DP  RH WIND       PRES   REMARKS
NORTH BEND     PTCLDY    48  46  93 SE5       30.44R
BROOKINGS      CLEAR     49  48  97 CALM      30.39R
ROSEBURG       CLOUDY    49  47  93 CALM      30.48R
SEXTON SUMMIT  LGT RAIN  46  40  79 E13       30.45R
MEDFORD        CLOUDY    40  39  97 SE5       30.51R FOG
$$

ORZ014>016-041-071700-
COLUMBIA GORGE


CITY           SKY/WX    TMP DP  RH WIND       PRES   REMARKS
TROUTDALE      CLOUDY    47  36  65 NE7       30.53R
THE DALLES     MOCLDY    37  32  82 SE3       30.61R
$$

ORZ029>031-041-044-049-050-061>064-502-503-505>511-071700-
EASTERN OREGON


CITY           SKY/WX    TMP DP  RH WIND       PRES   REMARKS
REDMOND        PTCLDY    30  27  88 CALM      30.54R
BEND           PTCLDY    32  30  93 SE3       30.55S
PRINEVILLE     PTCLDY    30  28  93 CALM      30.54R
KLAMATH FALLS  CLEAR     30  28  92 CALM      30.54R
LAKEVIEW       CLEAR     25  21  86 CALM      30.56R
HERMISTON      CLEAR     30  27  88 CALM      30.59R
PENDLETON      CLEAR     31  28  89 CALM      30.56R
JOHN DAY       CLEAR     35  32  90 SE6       30.56S WCI  30
MEACHAM        CLEAR     23  20  88 CALM      30.52R
LA GRANDE      CLEAR     30  25  80 CALM      30.56R
BAKER CITY     PTCLDY    24  23  96 CALM      30.59R FOG
BURNS          PTCLDY    22  19  89 W5        30.57R WCI  16
ROME             N/A     34  29  82 S5        30.55R WCI  30
ONTARIO        CLEAR     28  24  85 SW3       30.65R
$$




USA.gov is the U.S. government's official web portal to all federal, state and local government web resources and services.